VE3DVC Weather Reports


Display with metric or nautical units.
time (UTC)temp
F
wind
direction
speed
MPH
gust
MPH
rain 1hr
in
rain 24hr
in
rain mn
in
humidity
%
barometer
mb
20260510143523 51 257 1.0 5.0 0.00 0.00 0.00 59 1016.1
20260510142323 50 301 1.0 4.0 0.00 0.00 0.00 65 1016.1
20260510141123 50 275 1.0 5.0 0.00 0.00 0.00 64 1015.9
20260510134335 49 250 1.0 4.0 0.00 0.00 0.00 66 1015.4
20260510133134 48 315 1.0 4.0 0.00 0.00 0.00 68 1015.4
20260510131934 47 321 2.0 5.0 0.00 0.00 0.00 68 1015.3
20260510130734 47 246 1.0 4.0 0.00 0.00 0.00 72 1015.2
20260510124928 46 315 1.0 4.0 0.00 0.00 0.00 73 1014.8
20260510123728 45 269 1.0 4.0 0.00 0.00 0.00 74 1014.8
20260510122528 45 306 1.0 4.0 0.00 0.00 0.00 75 1014.6
20260510121327 44 0 0.0 4.0 0.00 0.00 0.00 76 1014.5
20260510120128 43 0 0.0 5.0 0.00 0.00 0.00 79 1014.4
20260510114927 43 0 0.0 3.0 0.00 0.00 0.00 80 1014.4
20260510113728 42 0 0.0 1.0 0.00 0.00 0.00 85 1014.2
20260510112528 41 0 0.0 0.0 0.00 0.00 0.00 88 1013.9
20260510111328 40 0 0.0 0.0 0.00 0.00 0.00 89 1013.7
20260510110127 40 0 0.0 0.0 0.00 0.00 0.00 90 1013.5
20260510104315 39 0 0.0 0.0 0.00 0.00 0.00 90 1013.2
20260510103115 39 0 0.0 0.0 0.00 0.00 0.00 89 1012.9
20260510101915 39 0 0.0 0.0 0.00 0.00 0.00 88 1012.6
20260510100715 40 0 0.0 0.0 0.00 0.00 0.00 87 1012.3
20260510095515 40 0 0.0 0.0 0.00 0.00 0.00 85 1012.2
20260510094315 41 0 0.0 0.0 0.00 0.00 0.00 84 1012.1
20260510093114 42 0 0.0 0.0 0.00 0.00 0.00 83 1011.9
20260510091914 43 0 0.0 0.0 0.00 0.00 0.00 79 1011.6
20260510090154 44 0 0.0 0.0 0.00 0.00 0.00 78 1011.3
20260510084954 44 0 0.0 0.0 0.00 0.00 0.00 77 1011.1
20260510082504 45 0 0.0 2.0 0.00 0.00 0.00 76 1010.6
20260510081304 45 0 0.0 4.0 0.00 0.00 0.00 76 1010.4
20260510080104 46 0 0.0 3.0 0.00 0.00 0.00 77 1010.5
20260510074905 46 0 0.0 2.0 0.00 0.00 0.00 77 1010.3
20260510073705 46 0 0.0 2.0 0.00 0.00 0.00 76 1010.0
20260510072504 46 0 0.0 2.0 0.00 0.00 0.00 77 1009.9
20260510071304 47 0 0.0 2.0 0.00 0.00 0.00 77 1009.6
20260510070104 47 0 0.0 3.0 0.00 0.00 0.00 76 1009.5
20260510064904 48 0 0.0 3.0 0.00 0.00 0.00 77 1009.3
20260510063705 48 0 0.0 4.0 0.00 0.00 0.00 79 1009.2
20260510062505 48 0 0.0 3.0 0.00 0.00 0.00 81 1008.9
20260510061304 48 0 0.0 2.0 0.00 0.00 0.00 82 1009.0
20260510060104 48 0 0.0 2.0 0.00 0.00 0.00 84 1008.8
20260510054904 48 0 0.0 2.0 0.00 0.00 0.00 86 1008.8
20260510053705 48 0 0.0 2.0 0.00 0.00 0.00 87 1008.6
20260510052504 49 0 0.0 2.0 0.00 0.00 0.00 87 1008.7
20260510051304 49 0 0.0 3.0 0.00 0.00 0.00 88 1008.5
20260510050104 49 0 0.0 2.0 0.00 0.00 0.00 89 1008.4
20260510044905 50 0 0.0 2.0 0.00 0.00 0.00 90 1008.1
20260510043705 50 0 0.0 2.0 0.00 0.00 0.00 91 1008.2
20260510041849 51 310 1.0 3.0 0.00 0.00 0.00 92 1007.6
20260510040650 50 300 1.0 4.0 0.00 0.00 0.00 91 1007.8
20260510035450 51 0 0.0 1.0 0.00 0.00 0.00 91 1007.0
20260510034250 51 0 0.0 0.0 0.00 0.00 0.00 91 1006.6
20260510033049 50 0 0.0 0.0 0.00 0.00 0.00 91 1006.6
20260510031850 50 0 0.0 1.0 0.00 0.00 0.00 91 1007.4
20260510030650 51 0 0.0 0.0 0.00 0.00 0.00 91 1006.1
20260510025450 51 0 0.0 0.0 0.00 0.00 0.00 91 1005.9
20260510023515 52 0 0.0 0.0 0.00 0.00 0.00 91 1005.7
20260510022316 52 0 0.0 0.0 0.00 0.00 0.00 91 1005.8
20260510021115 52 0 0.0 1.0 0.00 0.00 0.00 91 1005.9
20260510015915 52 0 0.0 0.0 0.00 0.00 0.00 91 1005.7
20260510014716 52 0 0.0 0.0 0.00 0.00 0.00 91 1005.6
20260510013515 52 0 0.0 0.0 0.00 0.00 0.00 91 1005.3
20260510012316 52 0 0.0 0.0 0.00 0.00 0.00 91 1004.9
20260510011115 52 0 0.0 0.0 0.00 0.00 0.00 92 1004.8
20260510005915 52 0 0.0 0.0 0.00 0.00 0.00 91 1004.6
20260510004715 53 0 0.0 0.0 0.00 0.00 0.00 92 1004.5
20260510003516 53 0 0.0 0.0 0.00 0.00 0.00 91 1004.4
20260510002316 54 0 0.0 0.0 0.00 0.00 0.00 92 1004.3
20260510001115 54 0 0.0 0.0 0.00 0.00 0.00 91 1004.2
20260509235916 54 0 0.0 0.0 0.00 0.00 0.00 92 1003.9
20260509234715 54 0 0.0 0.0 0.00 0.00 0.00 91 1003.7
20260509233514 54 0 0.0 0.0 0.00 0.00 0.00 91 1003.6
20260509232315 54 0 0.0 0.0 0.00 0.00 0.00 91 1003.5
20260509231116 54 0 0.0 0.0 0.00 0.00 0.00 91 1003.7
20260509225915 54 0 0.0 1.0 0.00 0.00 0.00 91 1003.6
20260509224716 54 0 0.0 0.0 0.00 0.00 0.00 91 1003.7
20260509222906 54 0 0.0 0.0 0.00 0.00 0.00 91 1003.7
20260509221706 53 0 0.0 0.0 0.00 0.00 0.00 91 1003.6
20260509220506 53 0 0.0 5.0 0.00 0.00 0.00 90 1003.9
20260509215307 54 0 0.0 3.0 0.00 0.00 0.00 87 1005.1
20260509214108 57 296 1.0 9.0 0.00 0.00 0.00 82 1005.5
20260509212906 60 0 0.0 2.0 0.00 0.00 0.00 78 1003.5
20260509211706 60 0 0.0 1.0 0.00 0.00 0.00 77 1002.9
20260509210507 61 0 0.0 3.0 0.00 0.00 0.00 76 1002.5
20260509205308 61 0 0.0 3.0 0.00 0.00 0.00 76 1002.5
20260509202906 61 0 0.0 3.0 0.00 0.00 0.00 76 1002.5
20260509201706 62 0 0.0 2.0 0.00 0.00 0.00 77 1002.6
20260509200506 62 227 1.0 4.0 0.00 0.00 0.00 75 1003.0
20260509195307 62 0 0.0 5.0 0.00 0.00 0.00 74 1003.6
20260509193429 63 0 0.0 8.0 0.00 0.00 0.00 74 1003.5
20260509192229 62 0 0.0 6.0 0.00 0.00 0.00 74 1003.6
20260509191029 62 186 2.0 6.0 0.00 0.00 0.00 72 1004.0
20260509185829 62 237 1.0 9.0 0.00 0.00 0.00 73 1004.0
20260509183429 63 242 1.0 5.0 0.00 0.00 0.00 73 1003.8
20260509182229 62 0 0.0 9.0 0.00 0.00 0.00 77 1004.0
20260509181029 60 0 0.0 6.0 0.00 0.00 0.00 80 1004.1
20260509175830 60 205 1.0 4.0 0.00 0.00 0.00 79 1004.4
20260509174630 60 218 2.0 7.0 0.00 0.00 0.00 80 1004.5
20260509165534 59 0 0.0 4.0 0.00 0.00 0.00 82 1005.0
20260509164335 60 0 0.0 4.0 0.00 0.00 0.00 81 1005.2
20260509163134 60 202 1.0 7.0 0.00 0.00 0.00 81 1005.3
20260509161934 59 208 1.0 6.0 0.00 0.00 0.00 82 1005.2
20260509160734 59 0 0.0 4.0 0.00 0.00 0.00 82 1005.4
20260509155535 60 227 1.0 6.0 0.00 0.00 0.00 81 1005.5
20260509154334 60 191 1.0 7.0 0.00 0.00 0.00 82 1005.3
20260509153134 59 222 1.0 7.0 0.00 0.00 0.00 86 1005.5
20260509151933 58 0 0.0 3.0 0.00 0.00 0.00 86 1005.8
20260509150734 57 0 0.0 5.0 0.00 0.00 0.00 88 1005.9
20260509145534 57 234 1.0 4.0 0.00 0.00 0.00 88 1005.9
20260509144334 57 0 0.0 4.0 0.00 0.00 0.00 88 1005.9